CW5217 Weather Reports


Display with metric or nautical units.
time (UTC)temp
F
wind
direction
speed
MPH
gust
MPH
rain 1hr
in
rain 24hr
in
rain mn
in
humidity
%
barometer
mb
20191207132542 28 226 0.0 1.0 0.00 0.06 0.00 69 1025.4
20191207132030 28 202 0.0 1.0 0.00 0.06 0.00 69 1025.4
20191207131519 28 206 0.0 1.0 0.00 0.06 0.00 71 1025.2
20191207131011 27 223 0.0 0.0 0.00 0.06 0.00 72 1025.2
20191207130503 27 225 0.0 0.0 0.00 0.06 0.00 72 1025.2
20191207125956 27 222 0.0 0.0 0.00 0.06 0.00 72 1024.9
20191207125446 27 236 0.0 0.0 0.00 0.06 0.00 71 1024.9
20191207125039 28 237 0.0 1.0 0.00 0.06 0.00 71 1024.9
20191207124519 28 219 0.0 1.0 0.00 0.06 0.00 71 1024.8
20191207123957 28 225 0.0 1.0 0.00 0.06 0.00 71 1024.8
20191207123454 28 212 0.0 1.0 0.00 0.06 0.00 71 1024.8
20191207123037 28 217 1.0 1.0 0.00 0.06 0.00 71 1024.8
20191207122526 28 222 1.0 1.0 0.00 0.06 0.00 70 1024.8
20191207122011 28 221 0.0 1.0 0.00 0.06 0.00 70 1024.8
20191207121447 28 207 1.0 1.0 0.00 0.06 0.00 70 1024.3
20191207121028 28 238 0.0 1.0 0.00 0.06 0.00 70 1024.3
20191207120513 28 213 0.0 1.0 0.00 0.06 0.00 70 1024.3
20191207120017 28 231 0.0 1.0 0.00 0.06 0.00 70 1023.9
20191207115454 28 214 0.0 0.0 0.00 0.06 0.00 70 1023.9
20191207115033 28 215 0.0 0.0 0.00 0.06 0.00 70 1023.9
20191207114039 28 232 0.0 0.0 0.00 0.06 0.00 70 1023.6
20191207112539 28 225 0.0 0.0 0.00 0.06 0.00 70 1023.3
20191207112027 28 226 0.0 0.0 0.00 0.06 0.00 70 1023.3
20191207111506 28 217 0.0 1.0 0.00 0.06 0.00 70 1023.2
20191207110957 28 220 0.0 1.0 0.00 0.06 0.00 71 1023.2
20191207110539 28 220 1.0 1.0 0.00 0.06 0.00 71 1023.2
20191207105527 28 215 0.0 1.0 0.00 0.06 0.00 72 1023.1
20191207104533 28 224 0.0 0.0 0.00 0.06 0.00 72 1022.9
20191207104024 28 216 0.0 0.0 0.00 0.06 0.00 72 1022.9
20191207103510 28 215 0.0 0.0 0.00 0.06 0.00 72 1022.9
20191207103002 28 215 0.0 0.0 0.00 0.06 0.00 72 1022.5
20191207102456 28 227 0.0 0.0 0.00 0.06 0.00 72 1022.5
20191207101949 28 237 0.0 0.0 0.00 0.06 0.00 72 1022.5
20191207101544 28 218 0.0 0.0 0.00 0.06 0.00 72 1022.5
20191207101035 28 219 0.0 1.0 0.00 0.06 0.00 72 1022.5
20191207100509 28 199 1.0 1.0 0.00 0.06 0.00 72 1022.5
20191207095532 28 205 0.0 1.0 0.00 0.06 0.00 72 1022.0
20191207095002 28 223 0.0 1.0 0.00 0.06 0.00 71 1022.0
20191207094448 28 212 0.0 1.0 0.00 0.06 0.00 71 1021.6
20191207094024 28 213 0.0 2.0 0.00 0.06 0.00 71 1021.6
20191207093040 28 192 0.0 1.0 0.00 0.06 0.00 70 1021.5
20191207092533 28 200 0.0 1.0 0.00 0.06 0.00 70 1021.5
20191207091541 28 215 0.0 1.0 0.00 0.06 0.00 70 1021.3
20191207091004 28 225 1.0 1.0 0.00 0.06 0.00 70 1021.3
20191207090446 28 227 0.0 1.0 0.00 0.06 0.00 70 1021.3
20191207090023 28 251 0.0 1.0 0.00 0.06 0.00 70 1021.4
20191207085505 28 219 0.0 1.0 0.00 0.06 0.00 70 1021.4
20191207084958 28 217 0.0 1.0 0.00 0.06 0.00 70 1021.4
20191207084538 28 225 0.0 0.0 0.00 0.06 0.00 70 1021.4
20191207084025 28 225 0.0 0.0 0.00 0.06 0.00 70 1021.4
20191207083457 28 217 0.0 0.0 0.00 0.06 0.00 71 1021.4
20191207083039 28 217 0.0 0.0 0.00 0.06 0.00 71 1021.0
20191207082519 29 221 0.0 1.0 0.00 0.06 0.00 72 1021.0
20191207081953 29 216 1.0 1.0 0.00 0.06 0.00 72 1021.0
20191207081535 29 210 0.0 0.0 0.00 0.06 0.00 72 1021.0
20191207080537 29 217 0.0 1.0 0.00 0.06 0.00 71 1021.0
20191207080003 29 214 1.0 1.0 0.00 0.06 0.06 71 1020.9
20191207075540 29 213 0.0 0.0 0.00 0.06 0.06 71 1020.9
20191207075022 30 212 0.0 0.0 0.00 0.06 0.06 71 1020.9
20191207074506 30 231 0.0 2.0 0.00 0.06 0.06 71 1020.8
20191207074044 30 218 1.0 2.0 0.00 0.06 0.06 71 1020.8
20191207073538 30 216 0.0 2.0 0.00 0.06 0.06 71 1020.8
20191207073014 30 180 2.0 2.0 0.00 0.06 0.06 71 1020.6
20191207071539 30 200 1.0 1.0 0.00 0.06 0.06 72 1020.3
20191207071037 30 203 1.0 2.0 0.00 0.06 0.06 73 1020.3
20191207070522 30 219 0.0 3.0 0.00 0.06 0.06 73 1020.3
20191207065956 30 206 1.0 2.0 0.00 0.06 0.06 75 1020.0
20191207065457 30 226 1.0 2.0 0.00 0.06 0.06 75 1020.0
20191207064958 30 223 0.0 1.0 0.00 0.06 0.06 76 1020.0
20191207064455 30 207 1.0 2.0 0.00 0.06 0.06 76 1019.8
20191207063956 30 207 1.0 2.0 0.00 0.06 0.06 77 1019.8
20191207063458 30 217 0.0 2.0 0.00 0.06 0.06 77 1019.8
20191207062958 30 220 0.0 2.0 0.00 0.06 0.06 77 1019.5
20191207062457 30 216 0.0 1.0 0.00 0.06 0.06 77 1019.5
20191207061956 30 213 0.0 2.0 0.00 0.06 0.06 77 1019.5
20191207061458 31 223 0.0 2.0 0.00 0.06 0.06 77 1019.4
20191207060957 31 167 0.0 2.0 0.00 0.06 0.06 77 1019.4
20191207060458 31 215 0.0 2.0 0.00 0.06 0.06 77 1019.4
20191207055958 31 217 0.0 2.0 0.00 0.06 0.06 76 1019.3
20191207055455 31 205 0.0 2.0 0.00 0.06 0.06 76 1019.3
20191207054952 31 219 0.0 2.0 0.00 0.06 0.06 76 1019.3
20191207054456 31 198 0.0 2.0 0.00 0.06 0.06 75 1019.2
20191207053957 31 192 1.0 2.0 0.00 0.06 0.06 75 1019.2
20191207053457 31 190 1.0 2.0 0.00 0.06 0.06 75 1019.2
20191207052958 31 209 1.0 3.0 0.00 0.06 0.06 75 1019.2
20191207052459 31 221 1.0 3.0 0.00 0.06 0.06 75 1019.2
20191207051959 31 196 2.0 3.0 0.00 0.06 0.06 74 1019.2
20191207051455 32 222 0.0 3.0 0.00 0.06 0.06 74 1018.7
20191207050956 32 138 1.0 3.0 0.00 0.06 0.06 74 1018.7
20191207050453 32 187 1.0 2.0 0.00 0.06 0.06 74 1018.7
20191207045948 32 209 1.0 2.0 0.00 0.06 0.06 74 1018.7
20191207045543 32 275 0.0 2.0 0.00 0.06 0.06 74 1018.7
20191207045031 32 182 1.0 1.0 0.00 0.06 0.06 74 1018.7
20191207044040 32 217 1.0 1.0 0.00 0.06 0.06 75 1018.6
20191207043515 32 152 1.0 1.0 0.00 0.06 0.06 75 1018.6
20191207042518 32 188 1.0 1.0 0.00 0.06 0.06 75 1018.5
20191207041947 32 231 0.0 2.0 0.00 0.06 0.06 75 1018.5
20191207041544 33 212 0.0 2.0 0.00 0.06 0.06 76 1018.5
20191207041033 33 164 2.0 2.0 0.00 0.06 0.06 76 1018.5
20191207040507 33 226 0.0 0.0 0.00 0.06 0.06 76 1018.5
20191207040034 33 214 0.0 1.0 0.00 0.06 0.06 76 1018.2
20191207035026 33 221 0.0 0.0 0.00 0.06 0.06 76 1018.2
20191207034514 33 221 0.0 1.0 0.00 0.06 0.06 75 1017.7
20191207033517 34 205 1.0 2.0 0.00 0.06 0.06 74 1017.7
20191207032949 34 195 2.0 2.0 0.00 0.06 0.06 74 1017.6
20191207032542 34 157 0.0 2.0 0.00 0.06 0.06 74 1017.6
20191207032030 34 217 0.0 2.0 0.00 0.06 0.06 74 1017.6
20191207031021 35 211 0.0 3.0 0.00 0.06 0.06 73 1017.6
20191207030501 35 182 2.0 3.0 0.00 0.06 0.06 73 1017.6
20191207030041 35 214 0.0 2.0 0.00 0.06 0.06 73 1017.3
20191207025530 35 208 1.0 2.0 0.00 0.06 0.06 73 1017.3
20191207024521 35 214 1.0 1.0 0.00 0.06 0.06 72 1017.1
20191207024013 36 213 1.0 1.0 0.00 0.06 0.06 72 1017.1
20191207023036 36 211 0.0 3.0 0.00 0.06 0.06 71 1016.5
20191207021519 37 161 2.0 4.0 0.00 0.06 0.06 71 1016.4
20191207020955 37 222 2.0 3.0 0.01 0.06 0.06 73 1016.4
20191207020450 37 207 1.0 2.0 0.01 0.06 0.06 74 1016.4
20191207020030 37 215 0.0 2.0 0.01 0.06 0.06 74 1016.3
20191207015528 37 194 1.0 4.0 0.01 0.06 0.06 74 1016.3
20191207015021 38 214 1.0 4.0 0.01 0.06 0.06 73 1016.3
20191207014033 38 179 2.0 2.0 0.01 0.06 0.06 71 1016.3
20191207013026 38 194 2.0 3.0 0.02 0.06 0.06 71 1016.0
20191207012025 39 166 1.0 2.0 0.02 0.06 0.06 72 1016.0
20191207011505 39 189 1.0 2.0 0.02 0.06 0.06 73 1015.9
20191207010956 39 175 1.0 3.0 0.02 0.05 0.05 74 1015.9
20191207010534 39 144 2.0 3.0 0.02 0.05 0.05 76 1015.9
20191207010007 40 155 1.0 2.0 0.02 0.05 0.05 78 1015.5
20191207005500 40 211 1.0 2.0 0.02 0.05 0.05 77 1015.5
20191207004950 40 209 2.0 4.0 0.03 0.05 0.05 76 1015.5
20191207004002 41 186 2.0 5.0 0.03 0.05 0.05 75 1015.2
20191207003456 41 190 1.0 5.0 0.02 0.04 0.04 74 1015.2
20191207003038 41 210 1.0 1.0 0.02 0.04 0.04 73 1014.7
20191207002527 41 182 1.0 2.0 0.03 0.04 0.04 73 1014.7
20191207002005 42 115 2.0 3.0 0.03 0.04 0.04 72 1014.7
20191207001458 42 254 2.0 3.0 0.03 0.04 0.04 72 1014.4
20191207000949 42 186 1.0 2.0 0.02 0.03 0.03 71 1014.4
20191207000543 42 225 0.0 2.0 0.02 0.03 0.03 71 1014.4
20191207000036 42 190 2.0 2.0 0.02 0.03 0.03 70 1014.1
20191206235530 42 218 0.0 3.0 0.03 0.03 0.03 69 1014.1
20191206235011 42 212 1.0 3.0 0.02 0.02 0.02 69 1014.1
20191206234446 42 220 0.0 1.0 0.02 0.02 0.02 69 1013.9
20191206234037 42 225 0.0 2.0 0.02 0.02 0.02 69 1013.9
20191206233510 42 220 1.0 3.0 0.02 0.02 0.02 68 1013.9
20191206232505 42 194 0.0 1.0 0.01 0.01 0.01 68 1013.6
20191206232043 42 211 1.0 1.0 0.01 0.01 0.01 68 1013.6
20191206231518 42 254 0.0 1.0 0.01 0.01 0.01 68 1013.4
20191206230508 42 59 2.0 2.0 0.01 0.01 0.01 69 1013.4
20191206225958 42 223 0.0 1.0 0.01 0.01 0.01 69 1013.2
20191206225537 42 109 1.0 1.0 0.00 0.00 0.00 70 1013.2
20191206225011 42 211 0.0 1.0 0.00 0.00 0.00 70 1013.2
20191206224500 42 221 0.0 1.0 0.00 0.00 0.00 70 1012.8
20191206224041 42 242 0.0 1.0 0.00 0.00 0.00 70 1012.8
20191206223528 42 86 1.0 2.0 0.00 0.00 0.00 70 1012.8
20191206221531 42 240 0.0 2.0 0.00 0.00 0.00 72 1012.4
20191206221003 42 63 1.0 2.0 0.00 0.00 0.00 73 1012.4
20191206220452 42 213 0.0 1.0 0.00 0.00 0.00 74 1012.4
20191206220033 42 252 0.0 2.0 0.00 0.00 0.00 74 1012.2
20191206215010 41 208 0.0 1.0 0.00 0.00 0.00 75 1012.2
20191206214456 41 176 0.0 1.0 0.00 0.00 0.00 74 1011.7
20191206214036 41 215 1.0 1.0 0.00 0.00 0.00 74 1011.7
20191206213533 41 230 1.0 1.0 0.00 0.00 0.00 74 1011.7
20191206213020 42 215 0.0 1.0 0.00 0.00 0.00 73 1011.6
20191206212030 41 213 0.0 1.0 0.00 0.00 0.00 73 1011.6
20191206211504 41 217 0.0 1.0 0.00 0.00 0.00 73 1011.2
20191206210955 41 238 0.0 1.0 0.00 0.00 0.00 72 1011.2
20191206210533 41 68 0.0 1.0 0.00 0.00 0.00 72 1011.2
20191206210023 41 259 1.0 1.0 0.00 0.00 0.00 72 1011.3
20191206205514 41 215 1.0 1.0 0.00 0.00 0.00 72 1011.3
20191206205000 41 222 0.0 1.0 0.00 0.00 0.00 71 1011.3
20191206204459 41 244 1.0 1.0 0.00 0.00 0.00 71 1011.4
20191206204040 41 221 0.0 1.0 0.00 0.00 0.00 70 1011.4
20191206203511 42 242 0.0 1.0 0.00 0.00 0.00 70 1011.4
20191206202539 42 237 0.0 1.0 0.00 0.00 0.00 70 1011.5
20191206202026 41 216 1.0 1.0 0.00 0.00 0.00 70 1011.5
20191206201446 41 219 0.0 1.0 0.00 0.00 0.00 70 1011.6
20191206201044 42 222 0.0 1.0 0.00 0.00 0.00 70 1011.6
20191206200533 42 275 1.0 1.0 0.00 0.00 0.00 69 1011.6
20191206195540 42 238 0.0 1.0 0.00 0.00 0.00 69 1011.4
20191206195034 42 239 0.0 1.0 0.00 0.00 0.00 68 1011.4
20191206194517 42 239 0.0 1.0 0.00 0.00 0.00 69 1011.6
20191206194012 42 234 0.0 1.0 0.00 0.00 0.00 67 1011.6
20191206193504 42 230 1.0 1.0 0.00 0.00 0.00 66 1011.6
20191206193042 42 225 0.0 1.0 0.00 0.00 0.00 67 1011.8
20191206192534 42 213 1.0 3.0 0.00 0.00 0.00 66 1011.8
20191206191949 42 234 0.0 3.0 0.00 0.00 0.00 65 1011.8
20191206191513 43 246 0.0 1.0 0.00 0.00 0.00 66 1011.7
20191206190958 43 246 0.0 1.0 0.00 0.00 0.00 65 1011.7
20191206190037 43 240 1.0 1.0 0.00 0.00 0.00 65 1011.8
20191206185513 43 192 0.0 1.0 0.00 0.00 0.00 64 1011.8
20191206184502 42 227 0.0 3.0 0.00 0.00 0.00 65 1012.0
20191206184041 42 238 0.0 3.0 0.00 0.00 0.00 66 1012.0
20191206183520 42 232 0.0 1.0 0.00 0.00 0.00 66 1012.0
20191206182951 42 241 0.0 1.0 0.00 0.00 0.00 66 1012.2
20191206182526 42 230 0.0 1.0 0.00 0.00 0.00 66 1012.2
20191206182001 42 251 0.0 2.0 0.00 0.00 0.00 66 1012.2
20191206181540 42 247 0.0 2.0 0.00 0.00 0.00 67 1012.3
20191206181014 42 230 0.0 1.0 0.00 0.00 0.00 67 1012.3
20191206180446 42 265 1.0 2.0 0.00 0.00 0.00 66 1012.3
20191206180026 42 272 1.0 2.0 0.00 0.00 0.00 66 1012.7
20191206175516 42 240 0.0 1.0 0.00 0.00 0.00 66 1012.7
20191206174538 42 246 0.0 1.0 0.00 0.00 0.00 67 1012.8
20191206174022 41 240 0.0 1.0 0.00 0.00 0.00 68 1012.8
20191206173018 41 241 0.0 1.0 0.00 0.00 0.00 68 1013.0
20191206172505 41 240 0.0 2.0 0.00 0.00 0.00 69 1013.0
20191206171957 40 242 1.0 2.0 0.00 0.00 0.00 69 1013.0
20191206171536 40 159 2.0 2.0 0.00 0.00 0.00 69 1013.3
20191206171013 40 209 0.0 3.0 0.00 0.00 0.00 68 1013.3
20191206170447 40 252 1.0 3.0 0.00 0.00 0.00 69 1013.3
20191206170027 40 250 0.0 1.0 0.00 0.00 0.00 70 1013.8
20191206165509 40 178 1.0 1.0 0.00 0.00 0.00 70 1013.8
20191206165003 39 240 0.0 1.0 0.00 0.00 0.00 71 1013.8
20191206164452 39 249 0.0 1.0 0.00 0.00 0.00 71 1014.2
20191206164029 39 243 0.0 1.0 0.00 0.00 0.00 71 1014.2
20191206163041 39 201 1.0 1.0 0.00 0.00 0.00 71 1014.5
20191206162528 39 157 1.0 1.0 0.00 0.00 0.00 72 1014.5
20191206162018 38 53 1.0 1.0 0.00 0.00 0.00 71 1014.5
20191206161510 38 250 1.0 1.0 0.00 0.00 0.00 71 1014.9
20191206160946 38 257 0.0 1.0 0.00 0.00 0.00 73 1014.9
20191206160543 38 261 0.0 1.0 0.00 0.00 0.00 72 1014.9
20191206160015 37 229 0.0 1.0 0.00 0.00 0.00 73 1015.2
20191206155043 37 244 0.0 1.0 0.00 0.00 0.00 73 1015.2
20191206154533 37 256 0.0 1.0 0.00 0.00 0.00 73 1015.5
20191206154009 37 244 0.0 2.0 0.00 0.00 0.00 73 1015.5
20191206153501 37 301 1.0 2.0 0.00 0.00 0.00 73 1015.5
20191206152947 37 198 1.0 1.0 0.00 0.00 0.00 74 1015.8
20191206152526 37 240 0.0 1.0 0.00 0.00 0.00 73 1015.8
20191206152008 36 232 0.0 1.0 0.00 0.00 0.00 75 1015.8
20191206151501 36 250 1.0 1.0 0.00 0.00 0.00 75 1016.2
20191206151039 36 242 0.0 1.0 0.00 0.00 0.00 75 1016.2
20191206150513 36 230 1.0 1.0 0.00 0.00 0.00 75 1016.2
20191206145947 35 257 1.0 2.0 0.00 0.00 0.00 76 1016.5
20191206145541 35 228 0.0 2.0 0.00 0.00 0.00 76 1016.5
20191206145012 35 236 1.0 2.0 0.00 0.00 0.00 75 1016.5
20191206144509 34 198 0.0 2.0 0.00 0.00 0.00 76 1016.7
20191206144007 34 234 0.0 0.0 0.00 0.00 0.00 76 1016.7
20191206143457 34 223 0.0 0.0 0.00 0.00 0.00 78 1016.7
20191206143038 34 205 0.0 0.0 0.00 0.00 0.00 77 1016.8
20191206142528 34 246 0.0 0.0 0.00 0.00 0.00 77 1016.8
20191206142024 33 229 0.0 1.0 0.00 0.00 0.00 78 1016.8
20191206141517 33 203 0.0 1.0 0.00 0.00 0.00 78 1016.8
20191206141004 33 245 0.0 0.0 0.00 0.00 0.00 78 1016.8
20191206140457 33 223 0.0 0.0 0.00 0.00 0.00 78 1016.8
20191206135947 32 246 0.0 0.0 0.00 0.00 0.00 79 1017.1
20191206135530 32 219 0.0 1.0 0.00 0.00 0.00 79 1017.1
20191206135018 32 232 0.0 1.0 0.00 0.00 0.00 79 1017.1
20191206134545 32 227 0.0 0.0 0.00 0.00 0.00 80 1016.9
20191206134017 32 229 0.0 0.0 0.00 0.00 0.00 80 1016.9
20191206133454 32 228 0.0 0.0 0.00 0.00 0.00 80 1016.9
20191206133033 31 246 0.0 1.0 0.00 0.00 0.00 80 1017.2